• In Portugal
  • List of Countries
  • For 7 days
  • Water Temperature
  • Satellite Maps
  • Weather Map
  • Weather Widgets
  • user-avatar
    Login

    Hourly Weather Escaldes-Engordany

    Today, 17 December, Sunday

    Time Temperature Precipitation Wind Pressure Humidity
    00:00 -7°C° 0 mm 3 mps 640 mmHg 77%
    01:00 -8°C° 0 mm 3 mps 640 mmHg 76%
    02:00 -8°C° 0 mm 3 mps 640 mmHg 76%
    03:00 -8°C° 0 mm 3 mps 640 mmHg 76%
    04:00 -8°C° 0 mm 3 mps 640 mmHg 75%
    05:00 -9°C° 0 mm 3 mps 640 mmHg 74%
    06:00 -9°C° 0 mm 3 mps 640 mmHg 73%
    07:00 -8°C° 0 mm 3 mps 641 mmHg 70%
    08:00 -7°C° 0 mm 3 mps 642 mmHg 67%
    09:00 -6°C° 0 mm 3 mps 642 mmHg 64%
    10:00 -4°C° 0 mm 3 mps 643 mmHg 61%
    11:00 -2°C° 0 mm 3 mps 643 mmHg 57%
    12:00 -1°C° 0 mm 3 mps 644 mmHg 54%
    13:00 -1°C° 0 mm 3 mps 644 mmHg 57%
    14:00 -1°C° 0 mm 3 mps 643 mmHg 60%
    15:00 -1°C° 0 mm 3 mps 643 mmHg 64%
    16:00 -2°C° 0 mm 3 mps 643 mmHg 68%
    17:00 -4°C° 0 mm 3 mps 643 mmHg 73%
    18:00 -4°C° 0 mm 3 mps 643 mmHg 78%
    19:00 -4°C° 0 mm 3 mps 644 mmHg 79%
    20:00 -4°C° 0 mm 3 mps 644 mmHg 80%
    21:00 -4°C° 0 mm 3 mps 644 mmHg 81%
    22:00 -4°C° 0 mm 3 mps 645 mmHg 81%
    23:00 -4°C° 0 mm 3 mps 645 mmHg 81%

    Tomorrow, 18 December, Monday

    Time Temperature Precipitation Wind Pressure Humidity
    00:00 -4°C° 0 mm 3 mps 645 mmHg 81%
    01:00 -4°C° 0 mm 3 mps 645 mmHg 82%
    02:00 -3°C° 0 mm 2 mps 645 mmHg 83%
    03:00 -4°C° 0 mm 2 mps 645 mmHg 84%
    04:00 -4°C° 0 mm 2 mps 644 mmHg 83%
    05:00 -4°C° 0 mm 2 mps 644 mmHg 83%
    06:00 -4°C° 0 mm 2 mps 644 mmHg 83%
    07:00 -3°C° 0 mm 2 mps 645 mmHg 80%
    08:00 -2°C° 0 mm 2 mps 645 mmHg 77%
    09:00 -1°C° 0 mm 3 mps 646 mmHg 73%
    10:00 0°C° 0 mm 3 mps 646 mmHg 71%
    11:00 +1°C° 0 mm 3 mps 646 mmHg 69%
    12:00 +3°C° 0 mm 3 mps 646 mmHg 66%
    13:00 +2°C° 0 mm 3 mps 645 mmHg 68%
    14:00 +2°C° 0 mm 3 mps 645 mmHg 70%
    15:00 +2°C° 0 mm 3 mps 644 mmHg 72%
    16:00 +1°C° 0.2 mm 3 mps 644 mmHg 76%
    17:00 +1°C° 0.2 mm 3 mps 644 mmHg 80%
    18:00 0°C° 0.2 mm 3 mps 643 mmHg 83%
    19:00 0°C° 0.2 mm 3 mps 643 mmHg 84%
    20:00 0°C° 0.2 mm 4 mps 643 mmHg 85%
    21:00 0°C° 0.2 mm 4 mps 643 mmHg 86%
    22:00 0°C° 0.1 mm 4 mps 643 mmHg 86%
    23:00 0°C° 0.1 mm 4 mps 643 mmHg 86%

    Day after tomorrow, 19 December, Tuesday

    Time Temperature Precipitation Wind Pressure Humidity
    00:00 -1°C° 0.1 mm 4 mps 643 mmHg 87%
    01:00 -1°C° 0.1 mm 4 mps 643 mmHg 87%
    02:00 -1°C° 0.1 mm 4 mps 643 mmHg 88%
    03:00 -2°C° 0.1 mm 4 mps 643 mmHg 88%
    04:00 -3°C° 0 mm 4 mps 643 mmHg 88%
    05:00 -2°C° 0 mm 3 mps 643 mmHg 88%
    06:00 -4°C° 0 mm 3 mps 643 mmHg 88%
    07:00 -4°C° 0 mm 3 mps 644 mmHg 85%
    08:00 -2°C° 0 mm 3 mps 644 mmHg 81%
    09:00 -2°C° 0 mm 3 mps 645 mmHg 78%
    10:00 -1°C° 0 mm 2 mps 646 mmHg 72%
    11:00 +1°C° 0 mm 2 mps 646 mmHg 65%
    12:00 +3°C° 0 mm 2 mps 647 mmHg 59%
    13:00 +2°C° 0 mm 2 mps 646 mmHg 61%
    14:00 +2°C° 0 mm 2 mps 646 mmHg 63%
    15:00 +2°C° 0 mm 2 mps 646 mmHg 65%
    16:00 -1°C° 0 mm 2 mps 646 mmHg 70%
    17:00 -3°C° 0 mm 2 mps 646 mmHg 76%
    18:00 -5°C° 0 mm 2 mps 645 mmHg 81%
    19:00 -5°C° 0 mm 2 mps 646 mmHg 79%
    20:00 -5°C° 0 mm 2 mps 646 mmHg 77%
    21:00 -5°C° 0 mm 2 mps 646 mmHg 75%
    22:00 -5°C° 0 mm 2 mps 646 mmHg 73%
    23:00 -5°C° 0 mm 2 mps 646 mmHg 72%

    20 December, Wednesday

    Time Temperature Precipitation Wind Pressure Humidity
    00:00 -5°C° 0 mm 2 mps 646 mmHg 70%
    01:00 -5°C° 0 mm 2 mps 646 mmHg 69%
    02:00 -5°C° 0 mm 2 mps 646 mmHg 67%
    03:00 -5°C° 0 mm 2 mps 646 mmHg 65%
    04:00 -5°C° 0 mm 2 mps 646 mmHg 66%
    05:00 -4°C° 0 mm 2 mps 646 mmHg 66%
    06:00 -4°C° 0 mm 2 mps 646 mmHg 66%
    07:00 -3°C° 0 mm 2 mps 647 mmHg 64%
    08:00 -2°C° 0 mm 2 mps 647 mmHg 62%
    09:00 -1°C° 0 mm 2 mps 648 mmHg 60%
    10:00 +2°C° 0 mm 2 mps 648 mmHg 60%
    11:00 +4°C° 0 mm 2 mps 649 mmHg 59%
    12:00 +4°C° 0 mm 3 mps 649 mmHg 58%
    13:00 +4°C° 0 mm 3 mps 648 mmHg 61%
    14:00 +3°C° 0 mm 3 mps 648 mmHg 64%
    15:00 +3°C° 0 mm 3 mps 648 mmHg 67%
    16:00 +1°C° 0 mm 3 mps 647 mmHg 70%
    17:00 0°C° 0 mm 3 mps 647 mmHg 72%
    18:00 -2°C° 0 mm 3 mps 647 mmHg 75%
    19:00 -2°C° 0 mm 3 mps 647 mmHg 75%
    20:00 -2°C° 0 mm 3 mps 647 mmHg 74%
    21:00 -2°C° 0 mm 3 mps 648 mmHg 73%
    22:00 -2°C° 0 mm 3 mps 648 mmHg 73%
    23:00 -2°C° 0 mm 2 mps 648 mmHg 73%

    21 December, Thursday

    Time Temperature Precipitation Wind Pressure Humidity
    00:00 -2°C° 0 mm 2 mps 648 mmHg 73%
    01:00 -2°C° 0 mm 2 mps 648 mmHg 73%
    02:00 -2°C° 0 mm 2 mps 648 mmHg 72%
    03:00 -2°C° 0 mm 2 mps 648 mmHg 72%
    04:00 -2°C° 0 mm 2 mps 648 mmHg 71%
    05:00 -2°C° 0 mm 2 mps 648 mmHg 71%
    06:00 -2°C° 0 mm 2 mps 648 mmHg 70%
    07:00 -1°C° 0 mm 2 mps 649 mmHg 68%
    08:00 +1°C° 0 mm 2 mps 650 mmHg 65%
    09:00 +3°C° 0 mm 1 mps 650 mmHg 63%
    10:00 +5°C° 0 mm 1 mps 651 mmHg 61%
    11:00 +6°C° 0 mm 1 mps 651 mmHg 59%
    12:00 +8°C° 0 mm 1 mps 651 mmHg 57%
    13:00 +7°C° 0 mm 1 mps 651 mmHg 60%
    14:00 +7°C° 0 mm 1 mps 651 mmHg 62%
    15:00 +6°C° 0 mm 1 mps 650 mmHg 65%
    16:00 +5°C° 0 mm 1 mps 650 mmHg 68%
    17:00 +3°C° 0 mm 1 mps 650 mmHg 70%
    18:00 +1°C° 0 mm 2 mps 649 mmHg 73%
    19:00 +1°C° 0 mm 2 mps 649 mmHg 70%
    20:00 +1°C° 0 mm 2 mps 650 mmHg 68%
    21:00 +1°C° 0 mm 2 mps 650 mmHg 65%
    22:00 -1°C° 0 mm 2 mps 650 mmHg 65%
    23:00 -1°C° 0 mm 2 mps 649 mmHg 64%

    22 December, Friday

    Time Temperature Precipitation Wind Pressure Humidity
    00:00 -1°C° 0 mm 2 mps 649 mmHg 64%
    01:00 -1°C° 0 mm 2 mps 649 mmHg 65%
    02:00 -1°C° 0 mm 2 mps 649 mmHg 66%
    03:00 -1°C° 0 mm 2 mps 649 mmHg 67%
    04:00 -1°C° 0 mm 2 mps 649 mmHg 69%
    05:00 -1°C° 0 mm 2 mps 649 mmHg 71%
    06:00 -2°C° 0 mm 3 mps 649 mmHg 72%
    07:00 -1°C° 0 mm 3 mps 650 mmHg 72%
    08:00 0°C° 0 mm 3 mps 650 mmHg 71%
    09:00 +1°C° 0 mm 3 mps 651 mmHg 70%
    10:00 +2°C° 0 mm 3 mps 651 mmHg 68%
    11:00 +4°C° 0 mm 3 mps 651 mmHg 65%
    12:00 +5°C° 0 mm 3 mps 652 mmHg 63%
    13:00 +4°C° 0 mm 3 mps 651 mmHg 66%
    14:00 +4°C° 0 mm 3 mps 651 mmHg 68%
    15:00 +4°C° 0 mm 3 mps 651 mmHg 71%
    16:00 +2°C° 0 mm 3 mps 650 mmHg 75%
    17:00 +1°C° 0 mm 3 mps 650 mmHg 79%
    18:00 -1°C° 0 mm 3 mps 650 mmHg 82%
    19:00 -1°C° 0 mm 3 mps 650 mmHg 82%
    20:00 -1°C° 0 mm 3 mps 650 mmHg 81%
    21:00 -1°C° 0 mm 3 mps 650 mmHg 81%
    22:00 -1°C° 0 mm 3 mps 650 mmHg 80%
    23:00 -1°C° 0 mm 3 mps 650 mmHg 80%
    Show more